星链-31044 (STARLINK-31044 )

导读 | 星芒AI

STARLINK-31044 是 SpaceX Starlink 卫星互联网项目中的一个组成部分,属于其低轨卫星星座的一部分,旨在为全球用户提供高速互联网服务。该卫星于2023年发射,运行在约550公里高的近地轨道,采用先进推进系统和激光通信技术,以提升网络性能和减少延迟。Starlink 项目致力于实现全球覆盖,特别是在偏远和网络基础设施薄弱地区。

基本信息
目录编号:
58589
目录名称:
STARLINK-31044
国际标识:
2023-200A
轨道中心:
EARTH
卫星名称:
星链-31044
卫星全名:
星链-31044 (STARLINK-31044 )
卫星状态:
在轨 (已飞行731 天)
发射日期:
2023-12-19 UTC
国别 :
美国 (US)
星等 :
--
轨道信息
数据来源 国际轨道数据 AOE轨道数据
星历时间 2025-12-18T18:06:51+0800
1天前
查看轨道信息
2025-12-18T20:00:00+0800
1天前
查看轨道信息
半长轴 6937.209km 6937.26km
偏心率 0.0001245 0.0001662
轨道倾角 43.005° 43.001°
近地点辐角 269.929° 224.151°
升交点赤经 251.471° 251.044°
平近点角 90.141° 201.389°
近地点 558.21km 557.972km
远地点 559.938km 560.278km
周期 95.838分钟 95.839分钟
每日圈数 15.025387 15.02522
详细信息
固有亮度:
5
最大亮度:
0.3
卫星平台:
Starlink v2.0 mini
覆盖范围:
全球
运营商:
太空探索技术公司
运营商所在国:
美国
制造商(研发单位):
太空探索技术公司
制造商所在国:
美国
使用方式:
暂无
卫星简介
星链(Starlink)计划是由太空探索技术公司(SpaceX)提出的一个巨型低轨卫星互联网星座项目,计划在2019年至2024年间在太空搭建由约1.2万颗卫星组成的“星链”网络,其中1584颗将部署在地球上空550千米处的近地轨道,并从2020年开始工作。该卫星仍在工作。
2D轨道图
3D轨道图
轨道高度分析图
轨道倾角分析图
轨道综合分析图
查看轨道综合分析图